Flight Information

DEPARTURE
EUGENE, OR
Elevation:
373
Runways:
16R/34L - 8009x150 - ASPH-G
16L/34R - 6000x150 - ASPH-G
Active PE Departure:
16L - 16R
Current PE ATIS:
Y
Altimeter:
29.92
Remarks:
SIMULTANEOUS APPROACHES TO PARALLEL RUNWAYS IN USE.
ATIS:
125.225 541-607-4699
Clearance Delivery:
121.7
Ground:
121.7
Tower:
EUGENE TOWER 118.9 RY 16R/34L 124.15 RY 16L/34R
DESTINATION
,
Elevation:
TPA:
1000 (est.)


6788.9 NM66° True-18° Var47° HDG

Flight Plan:
(click to file on line)

1. Type
2. Aircraft Identification
3. Aircraft Type / Special Equipment
4. True Airspeed
kts
5. Departure Airport
(ICAO code)
6. Arriving Airport
(ICAO code)
7. Cruising Altitude
ft
8. Alternate Airport
(ICAO code)
9. Route of Flight
10. Remarks


00:00:00 Departure ATIS: Destination ATIS:

Clearance Limit:
Route:
Altitude: Expect in minutes
Frequency:
Transponder: (7500 Hijack / 7600 Lost Comms / 7700 Emergency)


KEUG 251854Z 20006KT 10SM SCT012 BKN025 04/02 A2992 RMK AO2 SLP133 T00440017
Time: 2021-01-25T18:54:00Z
1611601108
Winds: 200 @ 6 kts
Visibility: 10.0 sm
Clouds (AGL): SCT 1200
BKN 2500
Temperature: 4.4 C
Dew Point: 1.7 C
Pressure: 29.920275 in Hgbr


Notes:

Data extracted from FAA Digital Chart Supplement. Effective: 0901Z Thursday, Dec 31, 2020 to 0901Z Thursday, Jan 28, 2021
Current ATIS data is provided courtisy of PilotEdge.